Location: Moscow
(38.8570°N, 84.2291°W)
Time: 18:23:14
(UTC+00:00)

Cosmos 2061 Rocket - Pass Details

Date: 15 November 2025
Orbit: 964 x 1012 km, 82.9° (Epoch: 12 December)

Event Time Altitude Azimuth Distance (km) Brightness Sun altitude
Rises 23:00:56 0° 186° (S) 3,703 7.4 -7.8°
Reaches altitude 10° 23:03:28 10° 187° (S) 2,751 6.7 -8.2°
Maximum altitude 23:09:47 86° 274° (W) 993 4.1 -9.4°
Drops below altitude 10° 23:16:05 10° 6° (N) 2,734 6.1 -10.6°
Sets 23:18:35 0° 7° (N) 3,679 6.8 -11.1°
